GW1914 Weather Reports


Display with metric or nautical units.
time (UTC)temp
F
wind
direction
speed
MPH
gust
MPH
rain 1hr
in
rain 24hr
in
rain mn
in
humidity
%
barometer
mb
20260902055528 61 247 0.0 4.0 0.00 0.00 0.00 76 1009.1
20260902055037 61 261 0.0 4.0 0.00 0.00 0.00 76 1009.3
20260902054544 62 250 0.0 2.0 0.00 0.00 0.00 78 1009.2
20260902054023 62 244 0.0 0.0 0.00 0.00 0.00 77 1009.3
20260902053533 62 263 0.0 0.0 0.00 0.00 0.00 75 1009.4
20260902053027 61 263 0.0 1.0 0.00 0.00 0.00 75 1009.4
20260902052519 62 263 0.0 1.0 0.00 0.00 0.00 74 1009.6
20260902052028 62 259 0.0 0.0 0.00 0.00 0.00 74 1009.5
20260902051523 63 249 0.0 0.0 0.00 0.00 0.00 75 1009.6
20260902051033 63 253 0.0 0.0 0.00 0.00 0.00 78 1009.5
20260902050525 63 257 0.0 0.0 0.00 0.00 0.00 75 1009.6
20260902050020 64 254 0.0 0.0 0.00 0.00 0.00 71 1009.5
20260902045532 64 256 0.0 0.0 0.00 0.00 0.00 69 1009.4
20260902045024 64 255 0.0 0.0 0.00 0.00 0.00 69 1009.5
20260902044521 64 264 0.0 4.0 0.00 0.00 0.00 68 1009.4
20260902044032 64 255 0.0 4.0 0.00 0.00 0.00 69 1009.5
20260902043520 64 242 0.0 0.0 0.00 0.00 0.00 71 1009.4
20260902043041 64 259 0.0 2.0 0.00 0.00 0.00 69 1009.4
20260902042527 64 263 0.0 2.0 0.00 0.00 0.00 70 1009.3
20260902042039 64 242 0.0 4.0 0.00 0.00 0.00 70 1009.2
20260902041533 65 254 0.0 4.0 0.00 0.00 0.00 69 1009.2
20260902041023 66 215 0.0 0.0 0.00 0.00 0.00 69 1009.2
20260902040532 66 265 0.0 0.0 0.00 0.00 0.00 68 1009.2
20260902040027 67 252 0.0 0.0 0.00 0.00 0.00 68 1009.2
20260902035538 66 259 0.0 0.0 0.00 0.00 0.00 65 1009.2
20260902035126 67 259 0.0 0.0 0.00 0.00 0.00 68 1009.2
20260902034524 67 260 0.0 1.0 0.00 0.00 0.00 65 1009.2
20260902034038 67 273 0.0 1.0 0.00 0.00 0.00 64 1009.2
20260902033526 67 255 0.0 0.0 0.00 0.00 0.00 64 1009.1
20260902033024 67 261 0.0 3.0 0.00 0.00 0.00 66 1009.2
20260902032534 68 252 0.0 3.0 0.00 0.00 0.00 64 1009.2
20260902032023 69 251 2.0 4.0 0.00 0.00 0.00 61 1009.2
20260902031521 70 259 0.0 1.0 0.00 0.00 0.00 58 1009.1
20260902031029 70 269 0.0 2.0 0.00 0.00 0.00 62 1009.1
20260902030518 70 259 0.0 1.0 0.00 0.00 0.00 63 1009.1
20260902030034 71 88 0.0 0.0 0.00 0.00 0.00 56 1009.2
20260902025627 72 88 0.0 0.0 0.00 0.00 0.00 54 1009.2
20260902025035 72 86 0.0 0.0 0.00 0.00 0.00 52 1009.1
20260902024537 72 85 0.0 0.0 0.00 0.00 0.00 51 1009.1
20260902024024 72 252 0.0 0.0 0.00 0.00 0.00 53 1009.0
20260902023530 72 252 0.0 0.0 0.00 0.00 0.00 53 1009.1
20260902023027 72 252 0.0 0.0 0.00 0.00 0.00 53 1009.1
20260902022520 72 252 0.0 0.0 0.00 0.00 0.00 53 1009.0
20260902022028 72 252 0.0 0.0 0.00 0.00 0.00 53 1009.0
20260902021526 72 252 0.0 0.0 0.00 0.00 0.00 54 1009.1
20260902021035 72 252 0.0 0.0 0.00 0.00 0.00 55 1009.0
20260902020524 72 252 0.0 0.0 0.00 0.00 0.00 54 1009.1
20260902020018 72 252 0.0 0.0 0.00 0.00 0.00 55 1009.0
20260902015528 72 273 0.0 0.0 0.00 0.00 0.00 57 1009.1
20260902015017 72 273 0.0 0.0 0.00 0.00 0.00 60 1009.2
20260902014536 71 273 0.0 0.0 0.00 0.00 0.00 65 1009.2
20260902014025 72 282 0.0 0.0 0.00 0.00 0.00 69 1009.2
20260902013531 72 283 0.0 0.0 0.00 0.00 0.00 66 1009.2
20260902013028 72 283 0.0 0.0 0.00 0.00 0.00 62 1009.2
20260902012534 72 283 0.0 0.0 0.00 0.00 0.00 59 1009.1
20260902012031 72 283 0.0 0.0 0.00 0.00 0.00 61 1009.2
20260902011529 72 283 0.0 0.0 0.00 0.00 0.00 63 1009.3
20260902011038 72 283 0.0 0.0 0.00 0.00 0.00 61 1009.3
20260902010527 73 5 0.0 1.0 0.00 0.00 0.00 61 1009.4
20260902010038 73 143 0.0 1.0 0.00 0.00 0.00 57 1009.5
20260902005529 74 15 0.0 0.0 0.00 0.00 0.00 51 1009.5
20260902005019 74 153 0.0 0.0 0.00 0.00 0.00 45 1009.5
20260902004536 74 143 0.0 0.0 0.00 0.00 0.00 40 1009.5
20260902004026 75 156 0.0 0.0 0.00 0.00 0.00 45 1009.4
20260902003536 75 188 0.0 3.0 0.00 0.00 0.00 43 1009.4
20260902003032 74 190 0.0 5.0 0.00 0.00 0.00 43 1009.4
20260902002520 74 94 3.0 7.0 0.00 0.00 0.00 42 1009.3
20260902002031 74 95 0.0 3.0 0.00 0.00 0.00 42 1009.2
20260902001528 74 146 0.0 0.0 0.00 0.00 0.00 42 1009.4
20260902001022 74 94 0.0 0.0 0.00 0.00 0.00 42 1009.5
20260902000530 74 89 0.0 0.0 0.00 0.00 0.00 45 1009.4
20260902000126 74 90 0.0 2.0 0.00 0.00 0.00 45 1009.4
20260901235537 74 103 0.0 2.0 0.00 0.00 0.00 46 1009.5
20260901235028 75 150 0.0 0.0 0.00 0.00 0.00 46 1009.6
20260901234525 74 149 0.0 3.0 0.00 0.00 0.00 50 1009.6
20260901234037 73 109 0.0 5.0 0.00 0.00 0.00 47 1009.8
20260901233524 73 190 1.0 8.0 0.00 0.00 0.00 48 1009.8
20260901233020 73 177 4.0 9.0 0.00 0.00 0.00 49 1010.1
20260901232533 73 169 5.0 15.0 0.00 0.00 0.00 47 1010.0
20260901232020 73 188 8.0 18.0 0.00 0.00 0.00 48 1010.0
20260901231535 74 208 13.0 18.0 0.00 0.00 0.00 47 1010.1
20260901231028 74 143 6.0 14.0 0.00 0.00 0.00 48 1010.2
20260901230519 74 360 1.0 6.0 0.00 0.00 0.00 47 1010.1
20260901230039 74 40 1.0 7.0 0.00 0.00 0.00 45 1010.1
20260901225523 75 11 3.0 7.0 0.00 0.00 0.00 43 1010.2
20260901225032 75 17 1.0 6.0 0.00 0.00 0.00 48 1010.2
20260901224528 76 171 0.0 3.0 0.00 0.00 0.00 38 1010.0
20260901224019 76 169 0.0 3.0 0.00 0.00 0.00 38 1010.1
20260901223528 76 158 0.0 3.0 0.00 0.00 0.00 36 1010.0
20260901223025 76 97 1.0 3.0 0.00 0.00 0.00 36 1010.1
20260901222536 76 93 0.0 4.0 0.00 0.00 0.00 40 1010.0
20260901222024 76 63 2.0 3.0 0.00 0.00 0.00 40 1010.0
20260901221520 75 64 0.0 3.0 0.00 0.00 0.00 46 1010.1
20260901221032 75 163 0.0 3.0 0.00 0.00 0.00 46 1010.1
20260901220519 75 170 0.0 5.0 0.00 0.00 0.00 44 1010.1
20260901220038 75 133 0.0 5.0 0.00 0.00 0.00 45 1010.2
20260901215525 75 163 0.0 4.0 0.00 0.00 0.00 44 1010.3
20260901215019 75 11 2.0 4.0 0.00 0.00 0.00 45 1010.5
20260901214537 75 34 1.0 4.0 0.00 0.00 0.00 50 1010.6
20260901214027 75 10 1.0 9.0 0.00 0.00 0.00 47 1010.5
20260901213536 75 161 5.0 9.0 0.00 0.00 0.00 46 1010.1
20260901213057 75 97 2.0 8.0 0.00 0.00 0.00 46 1010.0
20260901212522 76 103 2.0 9.0 0.00 0.00 0.00 43 1009.9
20260901212033 76 152 6.0 13.0 0.00 0.00 0.00 41 1009.9
20260901211539 76 191 6.0 15.0 0.00 0.00 0.00 43 1010.1
20260901211020 76 194 10.0 15.0 0.00 0.00 0.00 44 1010.1
20260901210528 76 136 7.0 14.0 0.00 0.00 0.00 44 1010.2
20260901210027 75 220 9.0 13.0 0.00 0.00 0.00 42 1010.2
20260901205538 75 188 9.0 16.0 0.00 0.00 0.00 42 1010.3
20260901205023 75 22 5.0 8.0 0.00 0.00 0.00 47 1010.3
20260901204521 75 165 1.0 4.0 0.00 0.00 0.00 54 1010.3
20260901204035 76 305 0.0 2.0 0.00 0.00 0.00 54 1010.1
20260901203529 76 318 0.0 2.0 0.00 0.00 0.00 45 1010.0
20260901203032 75 212 0.0 4.0 0.00 0.00 0.00 51 1009.8
20260901202529 75 71 1.0 4.0 0.00 0.00 0.00 56 1009.7
20260901202021 75 169 0.0 5.0 0.00 0.00 0.00 58 1009.3
20260901201536 76 167 2.0 5.0 0.00 0.00 0.00 53 1009.3
20260901201028 76 116 0.0 1.0 0.00 0.00 0.00 43 1009.1
20260901200637 76 116 0.0 2.0 0.00 0.00 0.00 51 1009.1
20260901200036 76 130 1.0 4.0 0.00 0.00 0.00 48 1009.2
20260901195531 76 163 0.0 4.0 0.00 0.00 0.00 55 1009.2
20260901195019 76 157 1.0 5.0 0.00 0.00 0.00 51 1009.2
20260901194536 77 157 0.0 3.0 0.00 0.00 0.00 49 1009.1
20260901194056 79 306 0.0 3.0 0.00 0.00 0.00 39 1009.2
20260901193556 78 304 0.0 3.0 0.00 0.00 0.00 37 1009.3
20260901193101 78 285 0.0 0.0 0.00 0.00 0.00 38 1009.2
20260901192554 78 232 0.0 1.0 0.00 0.00 0.00 40 1009.4
20260901192054 79 311 0.0 4.0 0.00 0.00 0.00 38 1009.3
20260901191558 78 311 1.0 4.0 0.00 0.00 0.00 38 1009.3
20260901191051 78 331 1.0 5.0 0.00 0.00 0.00 39 1009.3
20260901190549 77 14 2.0 6.0 0.00 0.00 0.00 38 1009.3
20260901190048 77 355 2.0 6.0 0.00 0.00 0.00 39 1009.3
20260901185547 77 329 2.0 8.0 0.00 0.00 0.00 40 1009.3
20260901185048 77 17 2.0 5.0 0.00 0.00 0.00 40 1009.2
20260901184545 77 333 1.0 6.0 0.00 0.00 0.00 40 1009.2
20260901184044 76 355 3.0 6.0 0.00 0.00 0.00 41 1009.2
20260901183542 76 9 1.0 8.0 0.00 0.00 0.00 41 1009.3
20260901183041 76 331 4.0 8.0 0.00 0.00 0.00 42 1009.4
20260901182543 75 355 3.0 6.0 0.00 0.00 0.00 40 1009.5
20260901182039 75 17 3.0 6.0 0.00 0.00 0.00 42 1009.4
20260901181539 74 355 3.0 6.0 0.00 0.00 0.00 41 1009.6
20260901181035 74 360 2.0 6.0 0.00 0.00 0.00 42 1009.7
20260901180534 73 337 4.0 6.0 0.00 0.00 0.00 43 1009.7
20260901180033 73 338 3.0 9.0 0.00 0.00 0.00 44 1009.7
20260901175531 73 360 4.0 9.0 0.00 0.00 0.00 46 1009.8
20260901175032 72 329 1.0 9.0 0.00 0.00 0.00 47 1009.8
20260901174532 72 5 4.0 9.0 0.00 0.00 0.00 47 1009.9
20260901174030 71 338 3.0 9.0 0.00 0.00 0.00 49 1010.0
20260901173527 71 333 3.0 9.0 0.00 0.00 0.00 49 1010.1
20260901173026 71 5 4.0 9.0 0.00 0.00 0.00 48 1010.0
20260901172524 71 340 3.0 6.0 0.00 0.00 0.00 49 1010.1
20260901172025 70 16 2.0 6.0 0.00 0.00 0.00 49 1010.2
20260901171524 70 340 1.0 9.0 0.00 0.00 0.00 51 1010.3
20260901171020 70 355 3.0 8.0 0.00 0.00 0.00 50 1010.3
20260901170518 69 355 1.0 6.0 0.00 0.00 0.00 52 1010.4
20260901170017 69 321 3.0 6.0 0.00 0.00 0.00 52 1010.5
20260901165515 68 342 3.0 6.0 0.00 0.00 0.00 53 1010.5
20260901165017 68 329 4.0 6.0 0.00 0.00 0.00 54 1010.6
20260901164513 68 338 1.0 5.0 0.00 0.00 0.00 55 1010.5
20260901164012 67 10 1.0 8.0 0.00 0.00 0.00 57 1010.6
20260901163510 67 360 1.0 8.0 0.00 0.00 0.00 57 1010.6
20260901163010 67 321 0.0 5.0 0.00 0.00 0.00 59 1010.5
20260901162508 66 336 0.0 4.0 0.00 0.00 0.00 61 1010.7
20260901162007 65 5 1.0 3.0 0.00 0.00 0.00 61 1010.9
20260901161506 64 355 0.0 3.0 0.00 0.00 0.00 62 1010.9
20260901161004 64 334 0.0 1.0 0.00 0.00 0.00 63 1011.1
20260901160503 64 334 0.0 0.0 0.00 0.00 0.00 63 1011.2
20260901160001 63 34 0.0 5.0 0.00 0.00 0.00 65 1011.2
20260901155600 62 17 1.0 6.0 0.00 0.00 0.00 65 1011.3
20260901155059 62 340 3.0 6.0 0.00 0.00 0.00 66 1011.3
20260901154558 62 345 2.0 8.0 0.00 0.00 0.00 67 1011.4
20260901154058 62 342 4.0 8.0 0.00 0.00 0.00 66 1011.3
20260901153556 62 355 4.0 8.0 0.00 0.00 0.00 67 1011.5
20260901153106 61 334 2.0 8.0 0.00 0.00 0.00 69 1011.5
20260901152554 61 360 3.0 8.0 0.00 0.00 0.00 69 1011.6
20260901152053 61 355 2.0 4.0 0.00 0.00 0.00 69 1011.6
20260901151552 60 325 2.0 5.0 0.00 0.00 0.00 70 1011.6
20260901151051 59 9 2.0 6.0 0.00 0.00 0.00 71 1011.4
20260901150548 59 328 1.0 4.0 0.00 0.00 0.00 72 1011.4
20260901150048 58 61 1.0 3.0 0.00 0.00 0.00 72 1011.4
20260901145550 58 35 0.0 2.0 0.00 0.00 0.00 73 1011.7
20260901145019 58 30 0.0 2.0 0.00 0.00 0.00 73 1011.9
20260901144536 57 29 0.0 0.0 0.00 0.00 0.00 75 1011.9
20260901144026 57 48 0.0 0.0 0.00 0.00 0.00 74 1011.8
20260901143536 56 48 0.0 0.0 0.00 0.00 0.00 72 1011.9
20260901143037 56 48 0.0 2.0 0.00 0.00 0.00 73 1011.8
20260901142521 55 48 0.0 2.0 0.00 0.00 0.00 73 1011.8
20260901142031 55 48 0.0 2.0 0.00 0.00 0.00 74 1011.8
20260901141536 55 48 1.0 3.0 0.00 0.00 0.00 73 1011.8
20260901141040 54 47 1.0 3.0 0.00 0.00 0.00 74 1011.9
20260901140526 54 52 1.0 2.0 0.00 0.00 0.00 76 1011.9
20260901140022 54 52 1.0 3.0 0.00 0.00 0.00 77 1011.9
20260901135534 53 49 1.0 3.0 0.00 0.00 0.00 78 1011.9
20260901135019 53 49 2.0 3.0 0.00 0.00 0.00 77 1011.9
20260901134538 53 29 0.0 0.0 0.00 0.00 0.00 78 1011.8
20260901134029 53 29 0.0 0.0 0.00 0.00 0.00 79 1011.9
20260901133519 53 29 0.0 0.0 0.00 0.00 0.00 81 1011.8
20260901133041 53 29 0.0 0.0 0.00 0.00 0.00 80 1011.9
20260901132527 53 29 0.0 0.0 0.00 0.00 0.00 78 1011.9
20260901132036 53 29 0.0 0.0 0.00 0.00 0.00 78 1011.8
20260901131534 53 29 0.0 0.0 0.00 0.00 0.00 80 1011.9
20260901131028 53 30 0.0 0.0 0.00 0.00 0.00 74 1011.8
20260901130534 53 29 0.0 0.0 0.00 0.00 0.00 75 1011.9
20260901130028 53 30 0.0 0.0 0.00 0.00 0.00 75 1011.9
20260901125518 53 30 0.0 0.0 0.00 0.00 0.00 75 1011.9
20260901125027 53 30 0.0 0.0 0.00 0.00 0.00 75 1011.9
20260901124526 53 30 0.0 0.0 0.00 0.00 0.00 74 1011.9
20260901124033 53 28 0.0 0.0 0.00 0.00 0.00 74 1011.9
20260901123527 54 341 0.0 0.0 0.00 0.00 0.00 78 1012.0
20260901123027 53 341 0.0 0.0 0.00 0.00 0.00 81 1011.9
20260901122535 53 338 0.0 0.0 0.00 0.00 0.00 82 1011.9
20260901122024 53 269 0.0 0.0 0.00 0.00 0.00 82 1012.0
20260901121530 54 260 0.0 0.0 0.00 0.00 0.00 83 1011.9
20260901121032 54 261 0.0 0.0 0.00 0.00 0.00 83 1011.9
20260901120520 54 275 0.0 0.0 0.00 0.00 0.00 83 1011.9
20260901120043 54 275 0.0 0.0 0.00 0.00 0.00 78 1011.9
20260901115527 54 275 0.0 0.0 0.00 0.00 0.00 78 1012.0
20260901115036 54 275 0.0 0.0 0.00 0.00 0.00 77 1011.9
20260901114529 54 275 0.0 0.0 0.00 0.00 0.00 77 1011.9
20260901114020 54 275 0.0 0.0 0.00 0.00 0.00 74 1011.9
20260901113531 54 275 0.0 0.0 0.00 0.00 0.00 76 1012.0
20260901113029 54 275 0.0 0.0 0.00 0.00 0.00 76 1012.0
20260901112521 54 275 0.0 0.0 0.00 0.00 0.00 77 1011.9
20260901112029 54 275 0.0 0.0 0.00 0.00 0.00 80 1011.9
20260901111527 54 275 0.0 0.0 0.00 0.00 0.00 81 1011.8
20260901111036 54 275 0.0 0.0 0.00 0.00 0.00 81 1011.8
20260901110525 54 275 0.0 0.0 0.00 0.00 0.00 80 1011.9
20260901110020 55 275 0.0 0.0 0.00 0.00 0.00 82 1011.9
20260901105529 55 275 0.0 0.0 0.00 0.00 0.00 83 1011.9
20260901105019 55 275 0.0 0.0 0.00 0.00 0.00 83 1011.9
20260901104534 55 275 0.0 0.0 0.00 0.00 0.00 83 1011.8
20260901104026 55 275 0.0 0.0 0.00 0.00 0.00 82 1011.8
20260901103534 55 275 0.0 0.0 0.00 0.00 0.00 82 1011.7
20260901103029 55 275 0.0 0.0 0.00 0.00 0.00 82 1011.8
20260901102520 55 275 0.0 0.0 0.00 0.00 0.00 82 1011.8
20260901102031 55 275 0.0 0.0 0.00 0.00 0.00 82 1011.7
20260901101527 55 275 0.0 0.0 0.00 0.00 0.00 81 1011.7
20260901101021 55 275 0.0 0.0 0.00 0.00 0.00 81 1011.8
20260901100529 55 275 0.0 0.0 0.00 0.00 0.00 80 1011.8
20260901100024 55 275 0.0 0.0 0.00 0.00 0.00 80 1011.9
20260901095536 55 275 0.0 0.0 0.00 0.00 0.00 80 1011.8
20260901095025 55 275 0.0 0.0 0.00 0.00 0.00 81 1011.8
20260901094522 56 275 0.0 0.0 0.00 0.00 0.00 81 1011.8
20260901094034 56 275 0.0 0.0 0.00 0.00 0.00 80 1011.8
20260901093524 56 275 0.0 0.0 0.00 0.00 0.00 79 1011.8
20260901093019 56 275 0.0 0.0 0.00 0.00 0.00 79 1011.7
20260901092527 56 261 0.0 0.0 0.00 0.00 0.00 78 1011.8
20260901092039 56 261 0.0 0.0 0.00 0.00 0.00 78 1011.9
20260901091534 56 261 0.0 0.0 0.00 0.00 0.00 78 1011.7
20260901091021 56 261 0.0 0.0 0.00 0.00 0.00 77 1011.6
20260901090537 56 261 0.0 0.0 0.00 0.00 0.00 79 1011.6
20260901090033 56 261 0.0 0.0 0.00 0.00 0.00 77 1011.7
20260901085522 56 261 0.0 0.0 0.00 0.00 0.00 75 1011.7
20260901085031 56 261 0.0 0.0 0.00 0.00 0.00 76 1011.7
20260901084528 56 261 0.0 0.0 0.00 0.00 0.00 75 1011.7
20260901084020 56 270 0.0 2.0 0.00 0.00 0.00 72 1011.7
20260901083529 56 276 0.0 3.0 0.00 0.00 0.00 73 1011.8
20260901083027 56 241 1.0 3.0 0.00 0.00 0.00 73 1011.8
20260901082535 57 252 1.0 2.0 0.00 0.00 0.00 74 1011.7
20260901082024 57 263 0.0 0.0 0.00 0.00 0.00 75 1011.8
20260901081521 57 265 0.0 0.0 0.00 0.00 0.00 76 1011.9
20260901081029 57 260 0.0 0.0 0.00 0.00 0.00 76 1012.0
20260901080519 58 254 0.0 2.0 0.00 0.00 0.00 75 1011.9
20260901080036 58 255 0.0 2.0 0.00 0.00 0.00 74 1011.9
20260901075529 58 243 1.0 3.0 0.00 0.00 0.00 74 1012.0
20260901075019 58 235 0.0 3.0 0.00 0.00 0.00 72 1012.0
20260901074539 58 250 0.0 2.0 0.00 0.00 0.00 69 1012.0
20260901074023 58 261 0.0 3.0 0.00 0.00 0.00 71 1012.0
20260901073534 58 260 1.0 3.0 0.00 0.00 0.00 66 1012.2
20260901073033 58 268 0.0 2.0 0.00 0.00 0.00 67 1012.2
20260901072518 58 259 0.0 3.0 0.00 0.00 0.00 69 1012.2
20260901072028 58 269 1.0 3.0 0.00 0.00 0.00 71 1012.1
20260901071524 58 265 0.0 0.0 0.00 0.00 0.00 70 1012.1
20260901071034 58 264 0.0 0.0 0.00 0.00 0.00 72 1012.2
20260901070525 59 258 0.0 0.0 0.00 0.00 0.00 72 1012.1
20260901070025 59 261 0.0 0.0 0.00 0.00 0.00 72 1012.2
20260901065530 58 261 0.0 3.0 0.00 0.00 0.00 71 1012.2
20260901065027 59 257 0.0 3.0 0.00 0.00 0.00 69 1012.2
20260901064534 59 274 0.0 3.0 0.00 0.00 0.00 68 1012.2
20260901064030 59 274 0.0 3.0 0.00 0.00 0.00 66 1012.1
20260901063518 59 263 0.0 2.0 0.00 0.00 0.00 67 1012.0
20260901063038 59 269 0.0 2.0 0.00 0.00 0.00 67 1012.0
20260901062529 59 269 0.0 2.0 0.00 0.00 0.00 66 1012.1
20260901062037 59 261 1.0 3.0 0.00 0.00 0.00 63 1012.1
20260901061534 59 269 1.0 4.0 0.00 0.00 0.00 64 1012.1
20260901061022 60 266 2.0 3.0 0.00 0.00 0.00 64 1012.0
20260901060537 60 259 2.0 3.0 0.00 0.00 0.00 67 1012.0
20260901060026 60 260 1.0 3.0 0.00 0.00 0.00 66 1012.0